Location: Unspecified
(43.4680°N, 87.1740°E)
Time: 19:48:45
(UTC+00:00)

Cosmos 1680 Rocket - Pass Details

Date: 17 April 2021
Orbit: 759 x 782 km, 74.1° (Epoch: 11 May)

Event Time Altitude Azimuth Distance (km) Brightness Sun altitude
Rises 21:25:52 0° 335° (NNW) 3,262 6.9 -19.9°
Reaches altitude 10° 21:28:18 10° 331° (NNW) 2,333 6.1 -19.6°
Maximum altitude 21:33:27 54° 255° (WSW) 944 3.6 -18.8°
Enters shadow 21:37:18 18° 183° (S) 1,855 5.1 -18.3°
